Regional Weather Roundup
Issued by NWS Little Rock, AR

Home | Current Version | Previous Version | Graphics & Text | Print | Product List | Glossary On
Versions: 1 2 3 4 5 6 7 8 9 10 11 12 13 14 15 16 17 18 19 20 21 22 23 24 25 26 27
000
ASUS44 KLZK 221505
RWRLZK

WEATHER ROUNDUP FOR ARKANSAS
NATIONAL WEATHER SERVICE LITTLE ROCK AR
1000 AM CDT TUE APR 22 2014

NOTE: "FAIR" INDICATES FEW OR NO CLOUDS BELOW 12,000 FEET WITH NO
SIGNIFICANT WEATHER AND/OR OBSTRUCTIONS TO VISIBILITY.

ARZ001-003-010-029-221600-
NORTHWEST ARKANSAS

CITY           SKY/WX    TMP DP  RH WIND       PRES   REMARKS
FAYETTEVILLE   SUNNY     64  46  52 VRB6      30.10R
FORT SMITH     SUNNY     69  54  58 N5        30.06R
HARRISON       SUNNY     64  47  53 N6        30.06S
BENTONVILLE    SUNNY     63  45  51 N12       30.11R
ROGERS         SUNNY     62  42  47 N12       30.10S
SILOAM SPGS    SUNNY     63  45  51 NE10      30.11S
HIGHFILL       SUNNY     63  47  55 NE9       30.09S
SPRINGDALE     SUNNY     63  41  45 NE14      30.11R
$$

ARZ004-005-016-221600-
NORTH CENTRAL ARKANSAS

CITY           SKY/WX    TMP DP  RH WIND       PRES   REMARKS
BATESVILLE     SUNNY     64  48  55 N6        30.00S
FLIPPIN        SUNNY     63  46  55 NW5       30.05S
MTN HOME       SUNNY     63  41  44 NW7       30.04R
$$

ARZ040-041-221600-
WEST CENTRAL ARKANSAS

CITY           SKY/WX    TMP DP  RH WIND       PRES   REMARKS
MENA           MOSUNNY   68  59  73 NE8       30.06S
MOUNT IDA      SUNNY     68  58  70 MISG      30.02R
$$

ARZ009-017-025-026-028-221600-
NORTHEAST ARKANSAS

CITY           SKY/WX    TMP DP  RH WIND       PRES   REMARKS
CORNING        FAIR      66  50  55 N13       29.99S
JONESBORO      SUNNY     68  52  56 N12G18    29.97R
NEWPORT        SUNNY     67  52  58 N9        30.00R
WALNUT RIDGE   SUNNY     66  52  59 N14G22    29.99R
BLYTHEVILLE    PTSUNNY   69  59  70 N14       29.96R
NW BLYTHEVILLE PTSUNNY   66  57  72 N10G17    29.96R
$$

ARZ022-023-033-042-044-221600-
CENTRAL ARKANSAS

CITY           SKY/WX    TMP DP  RH WIND       PRES   REMARKS
LITTLE ROCK    MOSUNNY   70  56  61 N10       30.01R
N LITTLE ROCK  MOSUNNY   68  58  70 N8        30.01R
JACKSONVILLE   SUNNY     69  55  61 N12G17    30.01R
SEARCY         SUNNY     68  53  58 N12       30.01R
HOT SPRINGS    SUNNY     70  53  54 VRB5G16   30.02S
RUSSELLVILLE   SUNNY     70  52  52 NE6       30.02S
CLINTON        FAIR      70  48  46 N7G21     30.03S
$$

ARZ036-221600-
EAST ARKANSAS

CITY           SKY/WX    TMP DP  RH WIND       PRES   REMARKS
WEST MEMPHIS   CLOUDY    66  62  87 N13G18    29.95R
$$

ARZ050-053-066-070-073-221600-
SOUTHWEST ARKANSAS

CITY           SKY/WX    TMP DP  RH WIND       PRES   REMARKS
ARKADELPHIA    FAIR      70  62  75 NE10      30.02R
CAMDEN         CLOUDY    66  61  82 MISG      30.02R
TEXARKANA      SUNNY     69  60  73 N5        30.03R
EL DORADO      MOSUNNY   67  61  81 NW8       30.02R
DE QUEEN       SUNNY     71  63  75 N5        30.02R
$$

ARZ056-057-069-221600-
SOUTHEAST ARKANSAS

CITY           SKY/WX    TMP DP  RH WIND       PRES   REMARKS
PINE BLUFF     CLOUDY    66  61  84 NW9       30.00R
STUTTGART      PTSUNNY   68  61  77 N16       29.99S
MONTICELLO     CLOUDY    66  61  84 NW5       29.99R

$$





USA.gov is the U.S. government's official web portal to all federal, state and local government web resources and services.